Date,TemperatureHighF,TemperatureAvgF,TemperatureLowF,DewpointHighF,DewpointAvgF,DewpointLowF,HumidityHigh,HumidityAvg,HumidityLow,PressureMaxIn,PressureMinIn,WindSpeedMaxMPH,WindSpeedAvgMPH,GustSpeedMaxMPH,PrecipitationSumIn
2013-1-1,70,58,48,68,49,31,93,74,52,30.06,29.77,13,4,13,0.00
2013-1-2,48,44,42,34,30,24,67,57,48,30.18,30.03,13,3,13,0.04
2013-1-3,58,47,39,24,14,4,50,30,14,30.30,30.15,12,3,13,0.00
2013-1-4,52,48,44,27,13,5,47,25,16,30.39,30.24,7,2,10,0.00
2013-1-5,49,47,45,45,38,19,85,72,34,30.27,30.12,10,1,10,0.59
2013-1-6,64,50,39,45,30,8,87,54,13,30.24,30.12,11,3,12,0.00
2013-1-7,60,48,36,44,30,17,82,53,22,30.18,29.94,8,1,8,0.00
2013-1-8,64,59,52,62,54,32,95,83,45,29.97,29.77,13,2,13,0.59
2013-1-9,68,65,63,67,63,59,97,92,82,29.97,29.68,13,3,13,0.39
2013-1-10,73,62,50,65,47,14,97,68,11,30.00,29.85,8,0,9,0.04
2013-1-11,75,60,46,67,44,16,86,62,12,29.94,29.77,6,1,6,0.00
2013-1-12,76,74,71,71,66,56,93,78,51,29.77,29.56,10,2,12,0.00
2013-1-13,73,52,45,65,37,22,81,57,36,30.00,29.65,15,4,15,0.31
2013-1-14,50,46,44,38,29,23,77,52,38,30.09,29.94,13,4,13,0.00
2013-1-15,45,41,38,35,30,26,77,64,48,30.03,29.91,11,4,11,0.04
2013-1-16,58,43,31,26,12,-2,61,31,14,30.18,30.00,18,4,18,0.00
2013-1-17,68,45,27,30,14,4,68,34,12,30.36,30.15,13,1,13,0.00
2013-1-18,66,46,33,40,19,6,75,40,13,30.42,30.27,10,1,10,0.00
2013-1-19,73,53,34,53,28,14,84,47,11,30.27,30.09,8,1,9,0.00
2013-1-20,76,55,44,60,32,14,83,50,10,30.15,30.00,8,0,8,0.00
2013-1-21,74,56,44,59,31,12,82,48,11,30.12,30.03,6,0,6,0.00
2013-1-22,74,55,44,53,30,14,82,46,11,30.21,30.09,8,1,8,0.00
2013-1-23,68,51,47,64,43,35,88,74,64,30.24,30.15,5,0,5,0.00
2013-1-24,69,68,68,60,59,59,73,73,73,30.20,30.14,2,2,3,0.00
2013-1-25,69,69,69,60,60,60,73,73,73,30.14,30.07,3,3,3,0.00
2013-1-26,70,70,69,61,61,60,73,73,73,30.07,30.01,3,3,4,0.00
2013-1-27,71,70,70,62,62,61,73,73,73,30.01,29.94,3,3,4,0.00
2013-1-28,72,71,71,64,62,62,76,73,73,29.94,29.85,10,3,11,0.00
2013-1-29,75,73,61,65,60,43,77,65,43,29.85,29.53,18,6,18,0.12
2013-1-30,66,56,38,47,14,2,61,21,13,30.12,29.65,21,4,25,0.04
2013-1-31,72,50,33,36,16,4,70,31,12,30.21,30.09,10,1,10,0.00
2013-2-1,76,56,44,47,23,8,69,33,10,30.27,30.12,10,1,10,0.00
2013-2-2,83,61,47,58,32,15,79,43,9,30.15,30.06,8,0,8,0.00
2013-2-3,76,59,49,51,27,8,80,39,10,30.21,29.97,8,1,9,0.00
2013-2-4,74,64,52,58,45,31,73,51,26,29.97,29.71,10,1,10,0.00
2013-2-5,83,70,61,66,52,23,84,59,12,29.88,29.77,9,1,9,0.00
2013-2-6,67,65,62,64,59,53,91,82,63,29.91,29.74,17,2,17,0.91
2013-2-7,70,63,54,65,52,44,89,68,40,29.88,29.80,4,0,6,0.00
2013-2-8,77,63,55,57,35,14,82,44,10,30.06,29.88,12,3,12,0.00
2013-2-9,72,64,56,60,48,39,77,58,33,30.03,29.77,12,3,12,0.00
2013-2-10,75,68,62,66,53,34,81,61,35,29.85,29.65,14,3,14,0.08
2013-2-11,64,59,56,53,42,15,85,57,17,29.94,29.83,20,4,20,0.20
2013-2-12,71,62,57,69,52,39,93,73,44,29.88,29.68,10,2,12,0.00
2013-2-13,69,54,42,39,21,7,57,31,12,30.00,29.88,14,3,14,0.04
2013-2-14,73,52,36,47,21,6,80,39,11,30.06,29.94,8,0,8,0.00
2013-2-15,77,56,39,53,22,8,78,36,10,30.21,29.97,16,2,16,0.00
2013-2-16,70,51,35,18,9,0,40,19,12,30.33,30.15,14,2,14,0.00
2013-2-17,73,56,37,42,22,11,72,32,11,30.15,29.94,12,3,13,0.00
2013-2-18,72,67,57,59,43,29,74,44,23,29.97,29.74,18,5,18,0.24
2013-2-19,72,58,48,49,22,8,73,30,11,30.12,29.94,13,2,13,0.55
2013-2-20,65,59,53,61,37,8,90,51,14,30.00,29.68,15,4,15,0.35
2013-2-21,76,69,58,68,54,-100,90,63,17,29.71,29.56,15,3,15,0.00
2013-2-22,72,62,55,46,27,9,67,32,11,29.85,29.71,12,3,12,0.00
2013-2-23,76,60,49,36,26,13,59,31,10,29.85,29.74,10,2,14,0.00
2013-2-24,72,60,46,56,39,19,86,52,14,29.83,29.53,11,2,11,0.00
2013-2-25,81,66,49,68,35,5,84,44,9,29.62,29.38,21,4,21,0.00
2013-2-26,71,55,45,18,10,3,28,16,12,29.80,29.62,19,3,19,0.00
2013-2-27,79,58,42,46,18,6,68,27,10,30.00,29.74,18,3,18,0.00
2013-2-28,63,50,40,15,7,2,36,17,13,31.01,30.00,13,3,13,0.00
2013-3-1,73,53,35,23,13,5,51,24,11,31.01,31.01,17,2,17,0.00
2013-3-2,64,49,36,13,7,-1,29,18,13,31.01,27.08,20,4,20,0.00
2013-3-3,73,52,32,37,16,4,47,28,11,0.00,40.00,13,2,13,0.00
2013-3-4,82,68,57,52,37,17,64,38,9,0.00,40.00,17,4,17,0.00
2013-3-5,78,66,51,50,24,6,53,24,10,0.00,40.00,15,5,17,0.00
2013-3-6,76,56,42,18,9,2,27,16,10,0.00,40.00,14,2,14,0.00
2013-3-7,75,57,40,42,20,12,67,29,11,0.00,40.00,11,2,11,0.00
2013-3-8,73,63,51,59,43,24,85,52,16,0.00,40.00,7,2,14,0.00
2013-3-9,80,69,64,58,46,22,70,48,12,29.88,23.71,16,3,16,0.00
2013-3-10,72,64,54,59,39,8,75,46,12,29.94,29.62,17,4,17,0.31
2013-3-11,71,55,40,16,9,1,28,15,12,30.00,29.88,17,4,17,0.00
2013-3-12,80,54,35,35,17,4,63,28,10,30.12,29.97,8,1,10,0.00
2013-3-13,80,58,43,46,23,11,73,34,10,30.33,30.12,10,1,12,0.00
2013-3-14,80,59,43,53,25,12,75,35,10,30.30,30.18,10,2,11,0.00
2013-3-15,82,63,46,58,32,15,81,40,9,30.18,29.97,11,2,14,0.00
2013-3-16,82,68,57,60,41,22,83,46,12,29.97,29.77,15,3,17,0.00
2013-3-17,82,71,64,67,51,28,87,54,14,29.77,29.62,12,2,14,0.00
2013-3-18,95,77,68,65,49,24,84,50,9,29.77,29.62,9,2,9,0.00
2013-3-19,84,70,63,57,39,16,67,37,11,29.88,29.77,11,2,11,0.00
2013-3-20,81,67,54,56,28,11,73,30,9,30.06,29.83,16,3,17,0.08
2013-3-21,76,63,50,49,33,14,72,38,10,29.94,29.62,14,3,14,0.00
2013-3-22,85,74,68,66,52,29,82,51,14,29.62,29.56,12,2,12,0.00
2013-3-23,80,72,64,66,59,48,81,66,34,29.62,29.44,6,0,6,0.00
2013-3-24,70,61,48,62,25,4,81,31,12,30.00,29.53,22,5,22,0.00
2013-3-25,72,53,41,16,7,0,21,16,12,30.24,30.03,13,3,13,0.00
2013-3-26,74,53,37,16,7,-1,19,15,11,30.36,30.21,12,2,16,0.00
2013-3-27,76,56,36,37,17,1,57,25,10,30.27,30.12,10,2,10,0.00
2013-3-28,79,66,58,42,31,16,53,30,10,30.15,30.09,11,2,11,0.00
2013-3-29,82,67,57,61,42,22,82,46,12,30.12,30.00,10,2,12,0.00
2013-3-30,83,71,64,62,47,22,81,50,11,30.03,29.85,10,2,10,0.00
2013-3-31,91,71,62,68,51,23,87,60,10,29.85,29.74,10,2,17,0.12
2013-4-1,86,70,60,64,48,23,86,56,11,29.97,29.83,8,1,8,0.00
2013-4-2,76,68,61,64,55,43,84,64,31,29.88,29.71,12,2,12,1.81
2013-4-3,77,64,55,63,48,29,92,63,18,29.94,29.65,12,3,12,0.08
2013-4-4,64,55,51,46,30,11,76,43,13,30.06,29.91,14,4,14,0.00
2013-4-5,81,60,43,41,22,11,69,28,9,30.15,29.97,11,2,11,0.00
2013-4-6,79,64,49,54,34,15,78,41,10,30.00,29.83,13,2,14,0.00
2013-4-7,83,70,61,61,42,21,80,44,11,29.88,29.77,11,2,11,0.00
2013-4-8,83,73,66,68,50,23,90,52,11,29.77,29.65,13,3,13,0.00
2013-4-9,83,75,69,62,55,41,77,53,24,29.71,29.59,13,5,16,0.00
2013-4-10,82,70,53,63,54,32,85,61,23,29.71,29.62,17,5,17,0.24
2013-4-11,77,57,46,50,31,11,85,50,10,29.83,29.68,17,3,17,1.22
2013-4-12,87,64,45,56,29,12,79,38,8,29.91,29.77,8,1,8,0.00
2013-4-13,84,65,49,60,35,16,79,42,9,29.85,29.68,11,2,12,0.00
2013-4-14,90,72,58,63,44,23,79,45,10,29.71,29.59,10,1,10,0.00
2013-4-15,83,75,70,65,55,38,81,54,21,29.74,29.62,10,2,10,0.00
2013-4-16,86,77,73,69,60,40,80,59,20,29.85,29.74,15,2,15,0.00
2013-4-17,78,76,74,67,62,57,76,62,48,29.83,29.65,11,4,13,0.00
2013-4-18,78,68,53,64,53,28,72,59,38,29.91,29.59,17,5,17,0.12
2013-4-19,74,57,44,28,12,4,38,18,11,30.12,29.91,19,5,19,0.00
2013-4-20,77,57,38,43,20,9,69,30,10,30.15,29.97,11,1,11,0.00
2013-4-21,81,64,51,51,30,15,69,36,9,30.06,29.94,10,1,10,0.00
2013-4-22,87,68,53,61,37,17,79,42,9,30.00,29.83,9,1,9,0.00
2013-4-23,86,72,58,67,45,23,86,47,11,29.85,29.77,11,2,11,0.00
2013-4-24,77,64,52,66,29,12,77,34,10,30.09,29.85,14,4,15,0.00
2013-4-25,74,65,59,46,24,12,45,23,11,30.18,30.06,13,3,13,0.00
2013-4-26,88,75,67,63,48,25,79,46,10,30.09,29.97,10,3,10,0.00
2013-4-27,78,73,66,68,61,51,87,68,43,30.00,29.85,10,1,16,1.30
2013-4-28,85,73,66,66,48,23,88,51,11,29.94,29.77,10,1,10,0.43
2013-4-29,91,74,65,70,50,24,84,52,10,29.83,29.71,9,1,9,0.00
2013-4-30,88,75,66,68,47,23,82,48,10,29.74,29.62,10,1,10,0.00
2013-5-1,91,76,66,69,46,24,83,44,10,29.77,29.68,8,0,8,0.00
2013-5-2,80,69,53,65,42,18,80,43,12,30.06,29.77,18,4,18,0.16
2013-5-3,74,58,47,22,15,6,33,20,11,30.06,29.94,20,6,20,0.00
2013-5-4,86,64,41,39,22,11,64,26,9,29.97,29.74,14,2,14,0.00
2013-5-5,83,66,51,36,21,10,50,22,9,29.97,29.83,17,2,17,0.00
2013-5-6,90,67,48,48,27,14,69,29,9,30.00,29.85,10,1,10,0.00
2013-5-7,94,73,56,56,34,17,70,31,9,29.94,29.85,11,1,11,0.00
2013-5-8,90,73,59,63,40,22,77,39,10,29.94,29.85,10,2,10,0.00
2013-5-9,81,76,70,66,56,47,73,53,31,29.88,29.74,13,2,13,0.00
2013-5-10,85,74,67,73,59,33,90,65,16,29.91,29.74,15,1,17,0.28
2013-5-11,94,76,64,76,46,23,88,47,9,29.97,29.80,9,1,9,0.04
2013-5-12,89,75,64,51,32,16,55,24,9,30.06,29.94,11,2,11,0.00
2013-5-13,89,72,56,54,31,15,69,28,9,30.18,30.06,10,1,10,0.00
2013-5-14,90,73,58,67,42,23,82,43,10,30.12,30.00,10,1,10,0.00
2013-5-15,84,73,68,67,54,23,79,55,11,30.03,29.83,10,2,10,0.08
2013-5-16,89,78,72,64,53,30,74,48,13,29.85,29.71,12,2,12,0.00
2013-5-17,92,80,74,68,53,30,77,46,12,29.83,29.74,12,2,12,0.00
2013-5-18,95,82,75,66,49,25,69,40,9,29.85,29.77,13,3,13,0.00
2013-5-19,94,82,75,65,49,25,68,38,9,29.80,29.71,11,3,11,0.00
2013-5-20,94,82,77,67,52,25,68,41,9,29.80,29.68,11,3,11,0.00
2013-5-21,92,82,76,69,54,30,75,44,12,29.77,29.62,8,2,10,0.00
2013-5-22,99,83,74,71,54,26,74,43,8,29.80,29.68,9,1,9,0.00
2013-5-23,97,84,73,70,50,25,74,40,8,29.94,29.77,10,1,10,0.00
2013-5-24,97,83,75,71,52,26,76,43,8,30.00,29.88,9,1,9,0.00
2013-5-25,92,80,73,70,52,25,76,44,9,30.03,29.94,11,1,11,0.00
2013-5-26,94,82,75,70,48,24,76,39,9,30.00,29.91,12,2,12,0.00
2013-5-27,94,81,72,66,49,25,73,40,9,29.94,29.80,10,2,11,0.00
2013-5-28,92,81,74,62,49,24,63,38,9,29.85,29.77,12,3,12,0.00
2013-5-29,89,81,76,66,54,39,65,42,18,29.80,29.68,14,3,14,0.00
2013-5-30,92,83,76,69,55,36,71,44,17,29.77,29.71,13,3,13,0.00
2013-5-31,98,85,79,74,54,26,76,43,8,29.80,29.74,14,2,14,0.00
2013-6-1,99,86,78,70,52,26,70,39,8,29.80,29.71,9,2,10,0.00
2013-6-2,92,79,70,72,54,25,79,50,9,29.91,29.77,17,1,17,0.16
2013-6-3,101,82,67,69,42,23,78,36,7,29.83,29.71,9,1,9,0.00
2013-6-4,102,83,69,68,44,25,72,35,7,29.80,29.71,6,1,9,0.00
2013-6-5,103,85,70,72,47,25,75,37,7,29.77,29.65,9,1,9,0.00
2013-6-6,103,85,70,72,49,25,76,41,7,29.77,29.62,18,1,18,0.83
2013-6-7,99,81,69,71,45,25,85,41,8,29.83,29.71,10,1,10,0.00
2013-6-8,98,79,68,69,48,25,68,39,8,29.83,29.71,10,0,10,0.00
2013-6-9,91,76,72,76,62,33,82,64,16,29.85,29.74,9,0,9,0.16
2013-6-10,99,81,70,78,58,25,86,53,8,29.85,29.83,11,0,11,0.00
2013-6-11,99,85,74,76,53,26,81,43,8,29.94,29.85,6,1,8,0.00
2013-6-12,100,85,74,73,52,26,77,40,8,29.94,29.85,9,1,9,0.00
2013-6-13,104,86,75,74,54,25,76,41,7,29.94,29.80,11,0,11,0.00
2013-6-14,106,87,74,76,49,25,79,38,6,29.85,29.77,8,1,8,0.00
2013-6-15,104,88,77,71,47,25,68,32,7,29.88,29.77,10,1,10,0.00
2013-6-16,101,86,73,71,49,25,71,36,7,29.91,29.83,9,1,9,0.00
2013-6-17,105,87,74,72,50,25,73,36,7,29.88,29.77,10,1,10,0.00
2013-6-18,103,86,76,70,48,25,73,36,7,29.88,29.74,13,1,13,0.00
2013-6-19,105,86,75,71,50,25,71,37,7,29.88,29.80,9,1,9,0.16
2013-6-20,101,87,76,75,49,25,78,38,7,29.97,29.85,10,1,10,0.00
2013-6-21,102,87,75,73,46,25,74,34,7,29.97,29.88,10,1,10,0.00
2013-6-22,104,87,74,71,46,25,70,32,7,29.94,29.83,7,1,10,0.00
2013-6-23,101,86,74,71,46,25,68,32,7,29.91,29.83,12,1,12,0.00
2013-6-24,102,87,76,68,46,25,67,31,7,29.94,29.85,11,2,11,0.00
2013-6-25,99,87,79,68,48,26,64,32,8,29.91,29.83,11,2,11,0.00
2013-6-26,105,88,78,70,47,25,66,32,7,29.88,29.83,10,1,10,0.00
2013-6-27,109,88,74,71,46,25,70,32,6,29.91,29.80,9,1,9,0.00
2013-6-28,108,89,76,71,45,25,74,31,6,29.88,29.68,10,1,10,0.00
2013-6-29,113,92,78,68,44,24,68,28,5,29.74,29.59,8,2,12,0.00
2013-6-30,110,92,76,55,35,24,42,18,5,29.74,29.62,12,1,12,0.00
2013-7-1,105,86,72,39,27,22,28,12,7,29.83,29.71,11,2,11,0.00
2013-7-2,105,85,69,50,33,24,43,19,7,29.88,29.80,9,1,9,0.00
2013-7-3,103,85,70,55,36,23,55,23,7,29.91,29.77,10,1,10,0.00
2013-7-4,104,86,71,60,38,24,58,24,7,29.85,29.77,9,1,9,0.00
2013-7-5,103,86,72,66,42,25,65,29,7,29.85,29.74,10,1,10,0.00
2013-7-6,101,87,74,67,45,25,65,30,7,29.83,29.74,8,1,10,0.00
2013-7-7,95,84,76,71,51,25,67,37,9,29.88,29.77,12,1,12,0.00
2013-7-8,96,84,77,67,53,26,62,38,9,30.03,29.88,7,1,10,0.04
2013-7-9,103,87,75,74,48,25,75,35,7,30.03,29.91,10,1,10,0.00
2013-7-10,103,88,75,70,46,25,69,31,7,29.97,29.85,10,1,10,0.00
2013-7-11,103,87,74,69,45,25,71,31,7,29.88,29.77,9,1,9,0.00
2013-7-12,103,89,78,66,44,25,61,27,7,29.85,29.77,8,1,8,0.00
2013-7-13,110,87,74,67,47,24,64,33,5,29.85,29.71,6,1,9,0.16
2013-7-14,95,85,76,73,50,25,74,38,9,29.83,29.74,9,1,9,0.00
2013-7-15,90,80,72,73,62,42,79,58,20,29.94,29.77,11,0,11,0.87
2013-7-16,91,81,75,74,64,44,85,61,20,29.97,29.88,9,1,10,0.87
2013-7-17,87,75,75,75,60,-100,86,68,38,30.06,29.97,9,-3,9,0.04
2013-7-18,100,85,74,76,50,25,85,42,8,30.03,29.88,10,-33,10,0.00
2013-7-19,92,80,74,71,60,35,72,53,17,29.94,29.83,9,0,9,0.16
2013-7-20,90,81,75,77,62,48,82,56,25,29.88,29.74,7,0,8,0.00
2013-7-21,92,81,74,76,60,31,86,56,12,29.88,29.80,12,1,12,0.00
2013-7-22,99,87,78,75,54,26,80,42,8,29.91,29.83,11,2,11,0.00
2013-7-23,100,87,76,73,49,26,77,38,8,29.91,29.80,9,1,9,0.00
2013-7-24,102,87,74,71,48,25,74,37,7,29.88,29.74,8,1,9,0.00
2013-7-25,107,88,76,70,49,25,74,36,6,29.91,29.83,9,1,9,0.00
2013-7-26,104,87,75,74,50,25,75,38,7,29.91,29.80,10,1,10,0.00
2013-7-27,102,84,77,76,58,25,76,47,7,29.85,29.71,10,1,10,0.35
2013-7-28,100,86,78,77,53,26,79,42,8,29.85,29.77,10,1,10,0.00
2013-7-29,100,86,76,74,49,25,77,38,7,29.97,29.85,10,1,10,0.00
2013-7-30,101,86,73,73,49,25,77,38,7,30.00,29.91,10,1,10,0.00
2013-7-31,108,86,72,73,48,25,77,37,6,29.97,29.83,8,1,8,0.00
2013-8-1,107,89,75,73,48,25,77,36,6,29.91,29.80,8,1,9,0.00
2013-8-2,106,88,76,72,49,25,72,35,6,29.88,29.80,8,1,8,0.00
2013-8-3,104,88,74,70,48,25,74,34,7,29.91,29.85,8,1,9,0.00
2013-8-4,102,87,77,72,48,22,73,34,7,29.97,29.85,11,1,11,0.00
2013-8-5,101,85,74,69,45,22,80,35,7,29.94,29.83,10,2,12,0.00
2013-8-6,100,85,74,69,46,22,81,36,7,29.85,29.77,10,2,10,0.00
2013-8-7,101,85,75,68,47,22,78,38,7,29.83,29.74,13,1,13,0.00
2013-8-8,100,83,70,68,45,22,78,37,7,29.83,29.74,9,1,9,0.00
2013-8-9,100,84,70,68,44,22,77,36,7,29.85,29.74,10,1,10,0.00
2013-8-10,96,81,74,75,53,23,86,45,8,29.91,29.83,8,0,8,0.71
2013-8-11,96,80,73,73,55,28,82,49,10,29.94,29.88,8,1,8,0.79
2013-8-12,96,83,71,70,46,23,79,38,8,29.94,29.85,9,1,9,0.08
2013-8-13,102,85,75,70,46,22,81,37,7,29.91,29.77,11,1,11,0.00
2013-8-14,102,83,72,68,49,22,78,43,6,29.88,29.74,13,1,13,0.16
2013-8-15,89,78,72,70,57,22,86,56,10,29.88,29.80,6,0,6,0.00
2013-8-16,97,82,73,67,48,22,77,44,7,29.88,29.77,8,1,8,0.04
2013-8-17,95,80,68,68,39,20,84,34,8,29.88,29.77,9,1,10,0.00
2013-8-18,95,81,66,55,37,22,65,29,8,29.91,29.83,9,1,9,0.00
2013-8-19,96,81,67,66,39,22,78,33,8,29.91,29.80,11,1,11,0.00
2013-8-20,94,77,69,66,47,22,77,40,8,29.91,29.83,8,0,8,0.00
2013-8-21,98,81,70,72,47,22,80,42,7,29.94,29.85,8,1,8,0.00
2013-8-22,97,83,72,71,45,22,79,35,7,29.94,29.83,8,1,8,0.00
2013-8-23,99,84,71,68,43,22,76,35,7,29.88,29.77,10,1,10,0.00
2013-8-24,96,83,73,66,44,23,73,34,8,29.88,29.80,12,2,12,0.00
2013-8-25,82,77,73,75,61,49,91,61,33,29.94,29.85,12,2,12,0.43
2013-8-26,84,75,71,70,61,31,90,66,16,30.00,29.91,8,1,10,0.00
2013-8-27,94,79,71,71,53,22,87,53,8,30.00,29.91,8,1,8,0.00
2013-8-28,98,82,69,70,42,22,79,36,7,29.97,29.85,7,0,8,0.00
2013-8-29,102,84,72,64,44,22,70,34,6,29.94,29.83,10,1,10,0.00
2013-8-30,98,83,73,67,45,22,75,35,7,29.91,29.77,10,1,10,0.00
2013-8-31,98,82,69,65,42,22,74,34,7,29.83,29.71,7,1,8,0.00
2013-9-1,98,82,68,65,42,22,74,35,7,29.83,29.71,10,1,10,0.00
2013-9-2,101,83,71,70,46,22,78,38,7,29.85,29.74,10,1,10,0.00
2013-9-3,101,84,70,69,45,22,77,36,7,29.88,29.74,8,1,8,0.00
2013-9-4,94,82,72,66,46,22,73,36,8,29.94,29.80,10,0,10,0.00
2013-9-5,98,83,72,70,44,22,76,36,7,29.94,29.88,10,1,10,0.00
2013-9-6,93,81,73,67,48,23,73,39,8,29.94,29.83,9,1,9,0.00
2013-9-7,95,78,71,68,56,23,80,56,8,29.91,29.80,9,0,9,0.28
2013-9-8,92,79,72,76,50,22,88,47,9,29.85,29.80,9,1,10,0.00
2013-9-9,93,78,70,67,48,22,78,44,9,29.85,29.80,10,1,10,0.00
2013-9-10,91,78,71,73,53,23,86,51,9,29.94,29.85,11,1,14,0.04
2013-9-11,93,79,70,68,46,22,80,41,8,29.94,29.85,10,1,10,0.00
2013-9-12,96,80,70,68,44,22,81,39,8,29.91,29.80,10,1,10,0.00
2013-9-13,98,81,68,64,43,22,74,36,7,29.83,29.68,9,1,11,0.00
2013-9-14,96,81,70,67,43,22,76,35,8,29.80,29.71,11,1,11,0.00
2013-9-15,94,81,72,68,47,22,78,38,8,29.85,29.77,10,1,10,0.00
2013-9-16,95,82,76,61,47,23,60,34,8,29.91,29.83,10,1,10,0.00
2013-9-17,93,81,73,69,49,23,79,40,8,29.91,29.83,10,1,10,0.00
2013-9-18,93,80,72,68,50,22,79,44,8,29.88,29.77,8,1,10,0.00
2013-9-19,91,79,73,72,59,33,84,55,14,29.83,29.74,12,1,12,0.28
2013-9-20,85,77,71,75,67,54,88,73,36,29.77,29.59,10,1,10,0.04
2013-9-21,72,70,68,68,60,47,93,74,42,29.71,29.62,11,3,11,0.00
2013-9-22,86,73,64,52,32,19,57,26,10,29.71,29.62,12,2,12,0.00
2013-9-23,91,77,66,60,34,22,57,24,9,29.68,29.59,9,1,9,0.00
2013-9-24,95,81,70,68,46,21,77,39,8,29.74,29.65,10,1,11,0.00
2013-9-25,100,80,64,64,39,22,79,33,7,29.74,29.65,6,0,6,0.00
2013-9-26,95,77,63,66,41,21,77,37,8,29.80,29.71,8,1,8,0.00
2013-9-27,89,77,68,64,48,30,72,41,12,29.83,29.77,10,1,11,0.00
2013-9-28,87,78,72,67,54,38,74,46,18,29.85,29.80,10,1,10,0.20
2013-9-29,89,76,73,67,60,33,75,59,14,29.85,29.77,12,0,13,0.35
2013-9-30,89,76,71,69,61,38,85,63,17,29.77,29.68,8,0,8,0.20
2013-10-1,87,75,71,72,56,27,85,57,15,29.83,29.71,8,0,8,0.00
2013-10-2,83,74,70,73,61,46,86,66,29,29.85,29.77,9,0,9,0.63
2013-10-3,92,77,68,73,51,22,86,51,9,29.83,29.74,9,1,9,0.00
2013-10-4,94,78,66,70,48,22,82,44,8,29.80,29.74,8,1,9,0.00
2013-10-5,92,79,70,70,50,28,80,44,11,29.77,29.68,10,0,10,0.00
2013-10-6,80,64,57,43,24,8,46,25,8,29.94,29.77,18,3,18,0.04
2013-10-7,84,63,46,38,20,6,61,23,8,29.97,29.85,10,1,10,0.00
2013-10-8,84,64,49,52,30,11,75,37,8,29.94,29.83,8,0,8,0.00
2013-10-9,84,67,53,60,34,19,78,39,10,29.91,29.83,6,0,8,0.00
2013-10-10,88,71,58,61,39,21,76,40,9,29.88,29.77,10,1,10,0.00
2013-10-11,89,74,61,65,46,21,79,45,9,31.01,25.19,9,1,9,0.00
2013-10-12,90,75,70,72,60,28,85,66,11,0.00,40.00,17,0,17,0.59
2013-10-13,75,72,70,69,65,55,87,79,53,0.00,40.00,7,-2,8,0.04
2013-10-14,86,74,68,72,51,21,88,53,10,0.00,40.00,6,-24,6,0.00
2013-10-15,87,74,66,70,49,22,83,50,10,0.00,40.00,6,0,7,0.08
2013-10-16,71,66,64,65,58,55,83,76,66,0.00,40.00,0,0,0,0.00
2013-10-20,75,58,43,50,32,17,79,44,12,0.00,40.00,4,0,8,0.00
2013-10-21,72,65,60,58,51,42,77,61,35,0.00,40.00,5,0,8,0.12
2013-10-22,75,63,51,58,40,12,82,49,10,0.00,40.00,6,1,11,0.00
2013-10-23,84,62,46,49,29,11,80,40,8,0.00,40.00,3,0,6,0.00
2013-10-24,84,64,49,52,31,12,79,39,8,0.00,40.00,4,0,6,0.00
2013-10-25,74,62,52,54,33,12,83,42,10,0.00,40.00,5,1,10,0.00
2013-10-26,82,65,54,54,37,19,79,43,11,30.00,29.97,5,0,10,0.00
2013-10-27,74,64,59,63,52,40,91,69,31,30.00,29.88,17,0,17,1.10
2013-10-28,84,68,58,64,48,25,89,56,13,30.00,29.91,10,1,10,0.00
2013-10-29,85,72,63,65,46,21,84,50,10,30.00,29.91,13,1,13,0.00
2013-10-30,77,73,70,72,62,54,89,69,45,29.94,29.74,12,-19,12,0.91
2013-10-31,75,68,57,72,64,52,95,88,72,29.77,29.65,15,-82,15,0.00
2013-11-1,80,63,50,62,40,14,91,58,9,29.83,29.71,9,-19,9,0.47
2013-11-2,73,60,48,58,23,5,88,30,10,30.09,29.83,15,3,15,0.00
2013-11-3,54,46,42,34,28,14,68,49,26,30.09,29.97,4,0,4,0.00
2013-11-4,74,63,52,59,46,33,81,57,24,29.97,29.88,10,1,11,0.04
2013-11-5,81,71,66,62,47,25,81,46,13,29.94,29.85,13,2,13,0.00
2013-11-6,84,68,52,69,43,20,87,49,11,30.12,29.88,12,2,12,0.00
2013-11-7,66,53,43,25,12,5,40,21,12,30.27,30.12,15,4,15,0.00
2013-11-8,66,52,45,29,18,6,45,29,12,30.24,30.06,10,1,13,0.00
2013-11-9,72,56,48,45,33,12,66,44,11,30.09,30.00,8,0,8,0.00
2013-11-10,76,61,50,43,28,11,65,35,10,30.18,30.06,8,1,8,0.00
2013-11-11,76,60,48,49,31,12,78,43,10,30.12,30.03,5,0,7,0.00
2013-11-12,74,56,44,50,30,4,85,44,10,30.42,30.09,17,4,20,0.00
2013-11-13,58,43,33,14,4,-4,39,20,14,30.48,30.30,13,3,14,0.00
2013-11-14,64,49,34,31,20,8,50,35,12,30.30,29.94,8,1,8,0.00
2013-11-15,78,62,52,57,41,25,84,50,14,29.94,29.80,8,1,8,0.00
2013-11-16,78,68,57,69,57,47,89,70,34,29.83,29.68,11,2,13,0.00
2013-11-17,85,74,70,69,56,36,88,59,18,29.83,29.68,10,1,10,0.00
2013-11-18,76,69,62,68,40,9,88,47,10,29.97,29.83,13,1,13,0.00
2013-11-19,68,59,51,31,12,6,45,17,11,30.03,29.91,10,2,10,0.00
2013-11-20,71,62,53,58,33,6,77,38,14,29.91,29.83,8,1,8,0.00
2013-11-21,83,72,66,62,54,36,76,56,19,29.97,29.85,10,2,11,0.00
2013-11-22,70,57,42,65,51,34,91,81,54,30.15,29.94,13,3,15,1.50
2013-11-23,48,45,42,43,35,20,91,71,39,30.27,30.12,14,5,15,0.04
2013-11-24,52,44,40,20,4,-1,39,19,15,30.30,30.15,13,4,13,0.00
2013-11-25,43,40,36,41,29,1,98,73,17,30.18,29.83,13,3,14,1.81
2013-11-26,41,39,37,40,31,20,98,75,48,30.15,29.88,15,4,15,0.59
2013-11-27,51,38,29,21,9,-4,56,34,15,30.33,30.15,11,2,13,0.00
2013-11-28,53,39,28,32,18,5,77,49,15,30.36,30.27,8,1,8,0.00
2013-11-29,58,44,33,32,17,2,81,42,14,30.39,30.27,8,1,8,0.00
2013-11-30,67,50,35,47,29,12,85,53,12,30.27,30.12,6,0,8,0.00
2013-12-1,69,57,46,56,41,21,91,62,16,30.12,29.85,6,0,7,0.00
2013-12-2,75,64,58,59,43,19,92,56,12,29.85,29.59,10,1,11,0.00
2013-12-3,79,66,58,66,48,19,98,64,11,29.62,29.53,10,1,10,0.00
2013-12-4,79,69,61,66,56,33,91,69,19,29.71,29.59,12,1,12,0.00
2013-12-5,75,59,38,70,48,25,91,69,35,29.88,29.68,13,3,15,0.00
2013-12-6,40,38,33,36,27,18,88,67,44,30.24,29.83,17,5,17,0.00
2013-12-7,36,34,32,22,18,14,61,50,41,30.27,30.15,12,3,13,0.00
2013-12-8,48,41,35,34,19,9,71,42,21,30.15,29.91,8,1,8,0.00
2013-12-9,48,44,39,42,38,31,85,79,71,30.15,29.91,12,2,13,0.08
2013-12-10,50,39,30,32,11,-2,75,36,15,30.33,30.15,13,3,13,0.00
2013-12-11,52,43,34,21,15,6,54,34,18,30.39,30.21,8,1,8,0.00
2013-12-12,56,43,33,26,14,2,66,37,14,30.42,30.24,8,1,8,0.00
2013-12-13,56,49,38,52,34,19,87,59,31,30.24,29.74,8,1,8,0.00
2013-12-14,61,50,37,56,29,9,95,52,13,30.15,29.74,16,4,17,0.00
2013-12-15,57,40,30,16,9,-1,52,30,14,30.27,30.15,11,2,11,0.00
2013-12-16,64,44,26,35,14,5,74,36,12,30.24,30.12,6,0,6,0.00
2013-12-17,70,48,31,44,20,9,75,42,11,30.24,30.12,6,0,6,0.00
2013-12-18,69,51,35,48,28,11,79,49,11,30.21,30.00,9,1,10,0.00
2013-12-19,72,62,49,59,45,31,81,57,23,30.00,29.80,13,2,13,0.00
2013-12-20,75,69,65,64,59,47,87,72,38,29.83,29.65,11,2,12,0.00
2013-12-21,72,64,50,67,58,45,90,81,45,29.71,29.47,12,2,14,0.00
2013-12-22,62,52,34,59,32,3,93,54,14,30.21,29.71,13,2,13,0.04
2013-12-23,54,39,30,16,10,-1,54,33,14,30.42,30.21,11,3,11,0.00
2013-12-24,53,38,26,32,12,1,77,41,15,30.44,30.21,9,1,9,0.00
2013-12-25,59,47,32,40,24,11,85,45,16,30.24,30.15,9,1,10,0.00
2013-12-26,61,50,41,37,16,4,65,28,13,30.27,30.18,8,1,8,0.00
2013-12-27,56,49,44,26,13,3,44,25,14,30.30,30.18,9,1,9,0.00
2013-12-28,58,46,35,19,8,1,52,22,14,30.18,29.91,8,0,8,0.00
2013-12-29,68,48,32,41,18,6,76,39,11,30.03,29.88,5,0,6,0.00
2013-12-30,50,42,38,30,12,3,46,30,19,30.27,30.00,11,3,14,0.00
2013-12-31,49,42,37,21,10,1,40,28,16,30.30,30.15,9,2,9,0.00
2014-1-1,64,53,43,44,32,20,66,47,24,30.18,29.91,7,0,8,0.00
2014-1-2,56,46,33,51,13,-5,84,30,14,30.33,29.94,22,5,22,0.00